| time (UTC) | temp F | wind direction | speed MPH | gust MPH | rain 1hr in | rain 24hr in | rain mn in | humidity % | barometer mb |
| 20260509224136 | 85 | 212 | 5.0 | 13.0 | 0.00 | 0.19 | 0.00 | 35 | 1007.9 |
| 20260509223819 | 85 | 212 | 5.0 | 13.0 | 0.00 | 0.19 | 0.00 | 35 | 1007.9 |
| 20260509223318 | 85 | 178 | 4.0 | 13.0 | 0.00 | 0.19 | 0.00 | 36 | 1008.1 |
| 20260509222819 | 85 | 142 | 5.0 | 10.0 | 0.00 | 0.19 | 0.00 | 37 | 1008.0 |
| 20260509222320 | 85 | 177 | 8.0 | 8.0 | 0.00 | 0.19 | 0.00 | 35 | 1008.1 |
| 20260509222240 | 85 | 163 | 3.0 | 9.0 | 0.00 | 0.19 | 0.00 | 35 | 1007.9 |
| 20260509222044 | 85 | 163 | 3.0 | 9.0 | 0.00 | 0.19 | 0.00 | 35 | 1007.9 |
| 20260509221808 | 85 | 149 | 2.0 | 11.0 | 0.00 | 0.19 | 0.00 | 34 | 1008.0 |
| 20260509221318 | 85 | 149 | 2.0 | 11.0 | 0.00 | 0.19 | 0.00 | 34 | 1008.0 |
| 20260509220818 | 85 | 136 | 2.0 | 11.0 | 0.00 | 0.19 | 0.00 | 33 | 1007.9 |
| 20260509220318 | 85 | 153 | 5.0 | 11.0 | 0.00 | 0.19 | 0.00 | 33 | 1008.1 |
| 20260509215824 | 87 | 244 | 3.0 | 6.0 | 0.00 | 0.19 | 0.00 | 30 | 1008.0 |
| 20260509215710 | 86 | 209 | 2.0 | 10.0 | 0.00 | 0.19 | 0.00 | 30 | 1008.1 |
| 20260509215320 | 86 | 209 | 2.0 | 10.0 | 0.00 | 0.19 | 0.00 | 30 | 1008.1 |
| 20260509214838 | 84 | 183 | 3.0 | 13.0 | 0.00 | 0.19 | 0.00 | 31 | 1008.2 |
| 20260509214818 | 85 | 175 | 3.0 | 10.0 | 0.00 | 0.19 | 0.00 | 32 | 1008.0 |
| 20260509214319 | 84 | 183 | 3.0 | 13.0 | 0.00 | 0.19 | 0.00 | 31 | 1008.2 |
| 20260509214214 | 85 | 100 | 2.0 | 13.0 | 0.00 | 0.19 | 0.00 | 29 | 1008.3 |
| 20260509213819 | 85 | 100 | 2.0 | 13.0 | 0.00 | 0.19 | 0.00 | 29 | 1008.3 |
| 20260509213316 | 86 | 197 | 5.0 | 10.0 | 0.00 | 0.19 | 0.00 | 31 | 1008.2 |
| 20260509212817 | 84 | 172 | 4.0 | 9.0 | 0.00 | 0.19 | 0.00 | 33 | 1008.3 |
| 20260509212309 | 85 | 102 | 4.0 | 8.0 | 0.00 | 0.19 | 0.00 | 32 | 1008.2 |
| 20260509211809 | 85 | 223 | 1.0 | 8.0 | 0.00 | 0.19 | 0.00 | 33 | 1008.3 |
| 20260509211746 | 84 | 176 | 7.0 | 9.0 | 0.00 | 0.19 | 0.00 | 34 | 1008.4 |
| 20260509211521 | 84 | 176 | 7.0 | 9.0 | 0.00 | 0.19 | 0.00 | 34 | 1008.4 |
| 20260509210808 | 85 | 88 | 8.0 | 9.0 | 0.00 | 0.19 | 0.00 | 32 | 1008.4 |
| 20260509210309 | 85 | 177 | 3.0 | 11.0 | 0.00 | 0.19 | 0.00 | 32 | 1008.6 |
| 20260509210153 | 85 | 216 | 2.0 | 11.0 | 0.00 | 0.19 | 0.00 | 33 | 1008.6 |
| 20260509210019 | 85 | 216 | 2.0 | 11.0 | 0.00 | 0.19 | 0.00 | 33 | 1008.6 |
| 20260509205657 | 85 | 173 | 5.0 | 9.0 | 0.00 | 0.19 | 0.00 | 33 | 1008.7 |
| 20260509205522 | 85 | 173 | 5.0 | 9.0 | 0.00 | 0.19 | 0.00 | 33 | 1008.7 |
| 20260509204808 | 85 | 212 | 7.0 | 13.0 | 0.00 | 0.19 | 0.00 | 33 | 1008.7 |
| 20260509204308 | 84 | 153 | 2.0 | 13.0 | 0.00 | 0.19 | 0.00 | 35 | 1008.6 |
| 20260509203808 | 85 | 172 | 5.0 | 11.0 | 0.00 | 0.19 | 0.00 | 38 | 1008.7 |
| 20260509203309 | 84 | 65 | 4.0 | 9.0 | 0.00 | 0.19 | 0.00 | 38 | 1008.6 |
| 20260509202808 | 84 | 136 | 3.0 | 11.0 | 0.00 | 0.19 | 0.00 | 38 | 1008.7 |
| 20260509202307 | 85 | 214 | 4.0 | 11.0 | 0.00 | 0.19 | 0.00 | 38 | 1008.9 |
| 20260509202203 | 85 | 146 | 3.0 | 11.0 | 0.00 | 0.19 | 0.00 | 41 | 1009.0 |
| 20260509201805 | 85 | 146 | 3.0 | 11.0 | 0.00 | 0.19 | 0.00 | 41 | 1009.0 |
| 20260509201307 | 86 | 222 | 2.0 | 6.0 | 0.00 | 0.19 | 0.00 | 37 | 1009.0 |
| 20260509201131 | 84 | 272 | 3.0 | 9.0 | 0.00 | 0.19 | 0.00 | 39 | 1009.1 |
| 20260509200950 | 84 | 167 | 1.0 | 6.0 | 0.00 | 0.19 | 0.00 | 39 | 1009.1 |
| 20260509200519 | 84 | 272 | 3.0 | 9.0 | 0.00 | 0.19 | 0.00 | 39 | 1009.1 |
| 20260509195809 | 83 | 159 | 2.0 | 13.0 | 0.00 | 0.19 | 0.00 | 40 | 1009.2 |
| 20260509195307 | 83 | 149 | 4.0 | 13.0 | 0.00 | 0.19 | 0.00 | 42 | 1009.2 |
| 20260509195157 | 85 | 223 | 2.0 | 6.0 | 0.00 | 0.19 | 0.00 | 37 | 1009.5 |
| 20260509194807 | 85 | 223 | 2.0 | 6.0 | 0.00 | 0.19 | 0.00 | 37 | 1009.5 |
| 20260509194306 | 83 | 132 | 0.0 | 6.0 | 0.00 | 0.19 | 0.00 | 39 | 1009.2 |
| 20260509193805 | 82 | 178 | 0.0 | 10.0 | 0.00 | 0.19 | 0.00 | 40 | 1009.4 |
| 20260509193308 | 83 | 82 | 6.0 | 10.0 | 0.00 | 0.19 | 0.00 | 40 | 1009.4 |
| 20260509193208 | 84 | 96 | 4.0 | 13.0 | 0.00 | 0.19 | 0.00 | 41 | 1009.6 |
| 20260509192807 | 84 | 96 | 4.0 | 13.0 | 0.00 | 0.19 | 0.00 | 41 | 1009.6 |
| 20260509192713 | 83 | 216 | 6.0 | 13.0 | 0.00 | 0.19 | 0.00 | 41 | 1009.6 |
| 20260509192519 | 83 | 216 | 6.0 | 13.0 | 0.00 | 0.19 | 0.00 | 41 | 1009.6 |
| 20260509191809 | 83 | 187 | 7.0 | 11.0 | 0.00 | 0.19 | 0.00 | 40 | 1009.6 |
| 20260509191305 | 83 | 213 | 5.0 | 9.0 | 0.00 | 0.19 | 0.00 | 38 | 1009.6 |
| 20260509190805 | 83 | 215 | 6.0 | 9.0 | 0.00 | 0.19 | 0.00 | 39 | 1009.7 |
| 20260509190619 | 83 | 211 | 4.0 | 11.0 | 0.00 | 0.19 | 0.00 | 43 | 1009.8 |
| 20260509190443 | 83 | 188 | 3.0 | 9.0 | 0.00 | 0.19 | 0.00 | 41 | 1009.8 |
| 20260509185805 | 83 | 211 | 4.0 | 11.0 | 0.00 | 0.19 | 0.00 | 43 | 1009.8 |
| 20260509185307 | 83 | 254 | 6.0 | 11.0 | 0.00 | 0.19 | 0.00 | 40 | 1009.9 |
| 20260509184807 | 83 | 305 | 3.0 | 10.0 | 0.00 | 0.19 | 0.00 | 41 | 1010.0 |
| 20260509184306 | 83 | 212 | 3.0 | 7.0 | 0.00 | 0.19 | 0.00 | 38 | 1010.0 |
| 20260509183809 | 83 | 223 | 0.0 | 11.0 | 0.00 | 0.19 | 0.00 | 38 | 1009.9 |
| 20260509183308 | 82 | 176 | 2.0 | 11.0 | 0.00 | 0.19 | 0.00 | 41 | 1010.1 |
| 20260509182805 | 82 | 143 | 4.0 | 8.0 | 0.00 | 0.19 | 0.00 | 42 | 1010.1 |
| 20260509182318 | 82 | 67 | 2.0 | 10.0 | 0.00 | 0.19 | 0.00 | 38 | 1010.2 |
| 20260509181806 | 82 | 166 | 3.0 | 12.0 | 0.00 | 0.19 | 0.00 | 42 | 1010.1 |
| 20260509181320 | 81 | 185 | 6.0 | 12.0 | 0.00 | 0.19 | 0.00 | 45 | 1010.2 |
| 20260509180806 | 81 | 202 | 10.0 | 10.0 | 0.00 | 0.19 | 0.00 | 43 | 1010.3 |
| 20260509180306 | 81 | 81 | 4.0 | 12.0 | 0.00 | 0.19 | 0.00 | 44 | 1010.6 |
| 20260509175812 | 80 | 172 | 6.0 | 12.0 | 0.00 | 0.19 | 0.00 | 45 | 1010.6 |
| 20260509175707 | 80 | 118 | 2.0 | 15.0 | 0.00 | 0.19 | 0.00 | 47 | 1010.7 |
| 20260509175521 | 80 | 118 | 2.0 | 15.0 | 0.00 | 0.19 | 0.00 | 47 | 1010.7 |
| 20260509174807 | 79 | 256 | 9.0 | 15.0 | 0.00 | 0.19 | 0.00 | 48 | 1010.9 |
| 20260509174306 | 79 | 284 | 2.0 | 10.0 | 0.00 | 0.19 | 0.00 | 52 | 1010.9 |
| 20260509173806 | 81 | 252 | 7.0 | 11.0 | 0.00 | 0.19 | 0.00 | 50 | 1010.9 |
| 20260509173307 | 81 | 204 | 6.0 | 11.0 | 0.00 | 0.19 | 0.00 | 49 | 1011.0 |
| 20260509172805 | 81 | 211 | 4.0 | 8.0 | 0.00 | 0.19 | 0.00 | 47 | 1010.7 |
| 20260509172704 | 80 | 107 | 4.0 | 8.0 | 0.00 | 0.19 | 0.00 | 50 | 1010.9 |
| 20260509172307 | 80 | 107 | 4.0 | 8.0 | 0.00 | 0.19 | 0.00 | 50 | 1010.9 |
| 20260509171807 | 80 | 203 | 3.0 | 8.0 | 0.00 | 0.19 | 0.00 | 48 | 1010.8 |
| 20260509171308 | 80 | 152 | 2.0 | 13.0 | 0.00 | 0.19 | 0.00 | 55 | 1011.0 |
| 20260509170806 | 78 | 177 | 3.0 | 13.0 | 0.00 | 0.19 | 0.00 | 55 | 1011.1 |
| 20260509170306 | 79 | 156 | 3.0 | 8.0 | 0.00 | 0.19 | 0.00 | 56 | 1011.1 |
| 20260509165806 | 80 | 176 | 4.0 | 8.0 | 0.00 | 0.19 | 0.00 | 60 | 1011.1 |
| 20260509165438 | 79 | 16 | 2.0 | 7.0 | 0.00 | 0.19 | 0.00 | 56 | 1011.2 |
| 20260509165424 | 78 | 172 | 3.0 | 6.0 | 0.00 | 0.19 | 0.00 | 57 | 1011.3 |
| 20260509165336 | 79 | 175 | 2.0 | 6.0 | 0.00 | 0.19 | 0.00 | 61 | 1011.1 |
| 20260509165000 | 79 | 168 | 3.0 | 7.0 | 0.00 | 0.19 | 0.00 | 59 | 1011.3 |
| 20260509164902 | 79 | 109 | 5.0 | 6.0 | 0.00 | 0.19 | 0.00 | 58 | 1011.0 |
| 20260509164441 | 79 | 16 | 2.0 | 7.0 | 0.00 | 0.19 | 0.00 | 56 | 1011.2 |
| 20260509163952 | 79 | 168 | 3.0 | 7.0 | 0.00 | 0.19 | 0.00 | 59 | 1011.3 |
| 20260509163307 | 78 | 172 | 3.0 | 6.0 | 0.00 | 0.19 | 0.00 | 57 | 1011.3 |
| 20260509162806 | 78 | 139 | 0.0 | 8.0 | 0.00 | 0.19 | 0.00 | 58 | 1011.5 |
| 20260509162307 | 77 | 234 | 3.0 | 10.0 | 0.00 | 0.19 | 0.00 | 59 | 1011.5 |
| 20260509161807 | 78 | 197 | 5.0 | 10.0 | 0.00 | 0.19 | 0.00 | 57 | 1011.3 |
| 20260509161717 | 78 | 189 | 2.0 | 6.0 | 0.00 | 0.19 | 0.00 | 64 | 1011.3 |
| 20260509161306 | 78 | 189 | 2.0 | 6.0 | 0.00 | 0.19 | 0.00 | 64 | 1011.3 |
| 20260509161134 | 76 | 210 | 3.0 | 10.0 | 0.00 | 0.19 | 0.00 | 67 | 1011.5 |
| 20260509160307 | 76 | 174 | 6.0 | 10.0 | 0.00 | 0.19 | 0.00 | 63 | 1011.4 |
| 20260509155806 | 76 | 174 | 4.0 | 6.0 | 0.00 | 0.19 | 0.00 | 69 | 1011.1 |
| 20260509155636 | 74 | 173 | 3.0 | 7.0 | 0.00 | 0.19 | 0.00 | 69 | 1011.3 |
| 20260509155449 | 75 | 202 | 4.0 | 6.0 | 0.00 | 0.19 | 0.00 | 69 | 1011.2 |
| 20260509155018 | 74 | 173 | 3.0 | 7.0 | 0.00 | 0.19 | 0.00 | 69 | 1011.3 |
| 20260509154332 | 74 | 135 | 2.0 | 7.0 | 0.00 | 0.19 | 0.00 | 71 | 1011.2 |
| 20260509154238 | 74 | 171 | 4.0 | 9.0 | 0.00 | 0.19 | 0.00 | 70 | 1011.2 |
| 20260509153806 | 74 | 171 | 4.0 | 9.0 | 0.00 | 0.19 | 0.00 | 70 | 1011.2 |
| 20260509153308 | 74 | 207 | 6.0 | 9.0 | 0.00 | 0.19 | 0.00 | 68 | 1011.3 |
| 20260509152808 | 75 | 214 | 5.0 | 9.0 | 0.00 | 0.19 | 0.00 | 69 | 1011.4 |
| 20260509152311 | 74 | 144 | 4.0 | 8.0 | 0.00 | 0.19 | 0.00 | 72 | 1011.2 |
| 20260509152159 | 73 | 164 | 3.0 | 8.0 | 0.00 | 0.19 | 0.00 | 73 | 1011.2 |
| 20260509152019 | 73 | 164 | 3.0 | 8.0 | 0.00 | 0.19 | 0.00 | 73 | 1011.2 |
| 20260509151309 | 73 | 145 | 5.0 | 9.0 | 0.00 | 0.19 | 0.00 | 76 | 1011.2 |
| 20260509150810 | 72 | 167 | 5.0 | 9.0 | 0.00 | 0.19 | 0.00 | 76 | 1011.2 |
| 20260509150309 | 72 | 168 | 6.0 | 9.0 | 0.00 | 0.19 | 0.00 | 74 | 1011.2 |
| 20260509145808 | 72 | 165 | 4.0 | 9.0 | 0.00 | 0.19 | 0.00 | 77 | 1011.2 |
| 20260509145307 | 72 | 157 | 3.0 | 7.0 | 0.00 | 0.19 | 0.00 | 76 | 1011.3 |
| 20260509144808 | 72 | 160 | 2.0 | 7.0 | 0.00 | 0.19 | 0.00 | 77 | 1011.1 |
| 20260509144708 | 72 | 66 | 1.0 | 6.0 | 0.00 | 0.19 | 0.00 | 76 | 1011.1 |
| 20260509144520 | 72 | 66 | 1.0 | 6.0 | 0.00 | 0.19 | 0.00 | 76 | 1011.1 |
| 20260509144115 | 72 | 131 | 2.0 | 5.0 | 0.00 | 0.19 | 0.00 | 77 | 1011.1 |
| 20260509144053 | 73 | 183 | 1.0 | 3.0 | 0.00 | 0.19 | 0.00 | 76 | 1011.2 |
| 20260509143932 | 72 | 91 | 5.0 | 6.0 | 0.00 | 0.19 | 0.00 | 75 | 1011.1 |
| 20260509143436 | 72 | 131 | 2.0 | 5.0 | 0.00 | 0.19 | 0.00 | 77 | 1011.1 |
| 20260509142308 | 72 | 98 | 1.0 | 3.0 | 0.00 | 0.19 | 0.00 | 76 | 1011.2 |
| 20260509141810 | 71 | 345 | 0.0 | 3.0 | 0.00 | 0.19 | 0.00 | 79 | 1011.3 |
| 20260509141309 | 71 | 218 | 0.0 | 3.0 | 0.00 | 0.19 | 0.00 | 80 | 1011.3 |
| 20260509141252 | 70 | 197 | 0.0 | 4.0 | 0.00 | 0.19 | 0.00 | 82 | 1011.1 |
| 20260509140838 | 70 | 197 | 0.0 | 4.0 | 0.00 | 0.19 | 0.00 | 82 | 1011.1 |
| 20260509140309 | 69 | 108 | 1.0 | 4.0 | 0.00 | 0.19 | 0.00 | 83 | 1010.8 |
| 20260509140222 | 69 | 160 | 1.0 | 3.0 | 0.00 | 0.19 | 0.00 | 85 | 1011.0 |
| 20260509135822 | 69 | 160 | 1.0 | 3.0 | 0.00 | 0.19 | 0.00 | 85 | 1011.0 |
| 20260509135309 | 68 | 107 | 1.0 | 3.0 | 0.00 | 0.19 | 0.00 | 85 | 1010.9 |
| 20260509135102 | 66 | 170 | 0.0 | 2.0 | 0.00 | 0.19 | 0.00 | 93 | 1010.8 |
| 20260509134939 | 67 | 94 | 1.0 | 3.0 | 0.00 | 0.19 | 0.00 | 87 | 1010.8 |
| 20260509134305 | 66 | 170 | 0.0 | 2.0 | 0.00 | 0.19 | 0.00 | 93 | 1010.8 |
| 20260509133825 | 65 | 107 | 1.0 | 2.0 | 0.00 | 0.19 | 0.00 | 97 | 1010.8 |
| 20260509133305 | 65 | 164 | 0.0 | 3.0 | 0.00 | 0.19 | 0.00 | 98 | 1010.8 |
| 20260509133005 | 61 | 21 | 2.0 | 2.0 | 0.00 | 0.19 | 0.00 | 98 | 1010.6 |
| 20260509132954 | 62 | 5 | 2.0 | 2.0 | 0.00 | 0.19 | 0.00 | 98 | 1010.8 |
| 20260509132858 | 62 | 341 | 1.0 | 3.0 | 0.00 | 0.19 | 0.00 | 98 | 1010.8 |
| 20260509132649 | 62 | 5 | 2.0 | 2.0 | 0.00 | 0.19 | 0.00 | 98 | 1010.8 |
| 20260509132016 | 61 | 21 | 2.0 | 2.0 | 0.00 | 0.19 | 0.00 | 98 | 1010.6 |
| 20260509131716 | 63 | 50 | 0.0 | 2.0 | 0.00 | 0.19 | 0.00 | 98 | 1010.6 |
| 20260509131318 | 63 | 50 | 0.0 | 2.0 | 0.00 | 0.19 | 0.00 | 98 | 1010.6 |
| 20260509130807 | 65 | 129 | 0.0 | 0.0 | 0.00 | 0.19 | 0.00 | 98 | 1010.6 |
| 20260509130651 | 64 | 129 | 0.0 | 1.0 | 0.00 | 0.19 | 0.00 | 98 | 1010.6 |
| 20260509130306 | 64 | 129 | 0.0 | 1.0 | 0.00 | 0.19 | 0.00 | 98 | 1010.6 |
| 20260509130150 | 61 | 66 | 0.0 | 2.0 | 0.00 | 0.19 | 0.00 | 98 | 1010.4 |
| 20260509130018 | 61 | 66 | 0.0 | 2.0 | 0.00 | 0.19 | 0.00 | 98 | 1010.4 |
| 20260509125308 | 60 | 112 | 0.0 | 2.0 | 0.00 | 0.19 | 0.00 | 98 | 1010.2 |
| 20260509124806 | 60 | 89 | 0.0 | 1.0 | 0.00 | 0.19 | 0.00 | 98 | 1010.3 |
| 20260509124306 | 59 | 100 | 0.0 | 1.0 | 0.00 | 0.19 | 0.00 | 98 | 1010.4 |
| 20260509123804 | 60 | 131 | 0.0 | 1.0 | 0.00 | 0.19 | 0.00 | 98 | 1010.2 |
| 20260509123305 | 58 | 209 | 0.0 | 1.0 | 0.00 | 0.19 | 0.00 | 98 | 1010.3 |
| 20260509122805 | 58 | 142 | 0.0 | 0.0 | 0.00 | 0.19 | 0.00 | 98 | 1010.2 |
| 20260509122308 | 57 | 135 | 0.0 | 0.0 | 0.00 | 0.19 | 0.00 | 98 | 1010.2 |
| 20260509122216 | 56 | 135 | 0.0 | 2.0 | 0.00 | 0.19 | 0.00 | 98 | 1010.0 |
| 20260509121820 | 56 | 135 | 0.0 | 2.0 | 0.00 | 0.19 | 0.00 | 98 | 1010.0 |
| 20260509121710 | 55 | 154 | 0.0 | 2.0 | 0.00 | 0.19 | 0.00 | 98 | 1010.0 |
| 20260509121307 | 55 | 154 | 0.0 | 2.0 | 0.00 | 0.19 | 0.00 | 98 | 1010.0 |
| 20260509120806 | 54 | 203 | 2.0 | 2.0 | 0.00 | 0.19 | 0.00 | 98 | 1010.0 |
| 20260509120328 | 54 | 232 | 2.0 | 2.0 | 0.00 | 0.19 | 0.00 | 98 | 1010.0 |
| 20260509115807 | 53 | 243 | 2.0 | 2.0 | 0.00 | 0.19 | 0.00 | 98 | 1009.9 |
| 20260509115357 | 52 | 103 | 0.0 | 1.0 | 0.00 | 0.19 | 0.00 | 98 | 1009.7 |
| 20260509115308 | 53 | 234 | 2.0 | 2.0 | 0.00 | 0.19 | 0.00 | 98 | 1009.9 |
| 20260509114947 | 52 | 103 | 0.0 | 1.0 | 0.00 | 0.19 | 0.00 | 98 | 1009.7 |
| 20260509114641 | 52 | 229 | 0.0 | 1.0 | 0.00 | 0.19 | 0.00 | 98 | 1009.6 |
| 20260509114450 | 52 | 229 | 0.0 | 1.0 | 0.00 | 0.19 | 0.00 | 98 | 1009.6 |
| 20260509113737 | 53 | 229 | 0.0 | 1.0 | 0.00 | 0.19 | 0.00 | 98 | 1009.8 |
| 20260509113724 | 52 | 113 | 0.0 | 1.0 | 0.00 | 0.19 | 0.00 | 98 | 1009.5 |
| 20260509113447 | 52 | 113 | 0.0 | 1.0 | 0.00 | 0.19 | 0.00 | 98 | 1009.5 |
| 20260509112737 | 53 | 117 | 0.0 | 1.0 | 0.00 | 0.19 | 0.00 | 98 | 1009.2 |
| 20260509112648 | 53 | 193 | 0.0 | 2.0 | 0.00 | 0.19 | 0.00 | 98 | 1009.3 |
| 20260509112237 | 53 | 193 | 0.0 | 2.0 | 0.00 | 0.19 | 0.00 | 98 | 1009.3 |
| 20260509111737 | 53 | 180 | 0.0 | 2.0 | 0.00 | 0.19 | 0.00 | 98 | 1009.3 |
| 20260509111336 | 53 | 249 | 0.0 | 2.0 | 0.00 | 0.19 | 0.00 | 98 | 1009.3 |
| 20260509111325 | 54 | 182 | 1.0 | 2.0 | 0.00 | 0.19 | 0.00 | 98 | 1009.2 |
| 20260509111249 | 53 | 233 | 1.0 | 2.0 | 0.00 | 0.19 | 0.00 | 98 | 1009.3 |
| 20260509110902 | 53 | 249 | 0.0 | 2.0 | 0.00 | 0.19 | 0.00 | 98 | 1009.3 |
| 20260509110815 | 53 | 135 | 0.0 | 1.0 | 0.00 | 0.19 | 0.00 | 98 | 1009.4 |
| 20260509110540 | 54 | 235 | 0.0 | 1.0 | 0.00 | 0.19 | 0.00 | 98 | 1009.3 |
| 20260509105447 | 54 | 182 | 1.0 | 2.0 | 0.00 | 0.19 | 0.00 | 98 | 1009.2 |
| 20260509105137 | 54 | 146 | 1.0 | 2.0 | 0.00 | 0.19 | 0.00 | 98 | 1009.2 |
| 20260509104738 | 54 | 146 | 1.0 | 2.0 | 0.00 | 0.19 | 0.00 | 98 | 1009.2 |
| 20260509104237 | 54 | 113 | 0.0 | 0.0 | 0.00 | 0.19 | 0.00 | 98 | 1009.2 |
| 20260509104136 | 54 | 113 | 0.0 | 1.0 | 0.00 | 0.19 | 0.00 | 98 | 1009.3 |
| 20260509103948 | 54 | 113 | 0.0 | 1.0 | 0.00 | 0.19 | 0.00 | 98 | 1009.3 |
| 20260509103724 | 54 | 129 | 0.0 | 1.0 | 0.00 | 0.19 | 0.00 | 98 | 1009.4 |
| 20260509103452 | 54 | 129 | 0.0 | 1.0 | 0.00 | 0.19 | 0.00 | 98 | 1009.4 |
| 20260509102737 | 55 | 175 | 0.0 | 1.0 | 0.00 | 0.19 | 0.00 | 98 | 1009.4 |
| 20260509102237 | 55 | 230 | 0.0 | 0.0 | 0.00 | 0.19 | 0.00 | 98 | 1009.4 |
| 20260509101737 | 55 | 230 | 0.0 | 2.0 | 0.00 | 0.19 | 0.00 | 98 | 1009.5 |
| 20260509101237 | 56 | 224 | 0.0 | 2.0 | 0.00 | 0.19 | 0.00 | 98 | 1009.6 |
| 20260509100737 | 55 | 216 | 1.0 | 2.0 | 0.00 | 0.19 | 0.00 | 98 | 1009.5 |
| 20260509100237 | 55 | 190 | 1.0 | 2.0 | 0.00 | 0.19 | 0.00 | 98 | 1009.9 |
| 20260509095737 | 56 | 201 | 1.0 | 2.0 | 0.00 | 0.19 | 0.00 | 98 | 1009.8 |
| 20260509095636 | 56 | 193 | 1.0 | 2.0 | 0.00 | 0.19 | 0.00 | 98 | 1010.0 |
| 20260509095452 | 56 | 193 | 1.0 | 2.0 | 0.00 | 0.19 | 0.00 | 98 | 1010.0 |
| 20260509094747 | 56 | 218 | 1.0 | 2.0 | 0.00 | 0.19 | 0.00 | 98 | 1010.2 |
| 20260509094538 | 56 | 124 | 0.0 | 2.0 | 0.00 | 0.19 | 0.00 | 98 | 1010.0 |
| 20260509094414 | 56 | 217 | 0.0 | 2.0 | 0.00 | 0.19 | 0.00 | 98 | 1010.0 |
| 20260509093736 | 56 | 124 | 0.0 | 2.0 | 0.00 | 0.19 | 0.00 | 98 | 1010.0 |
| 20260509093237 | 56 | 189 | 0.0 | 2.0 | 0.00 | 0.19 | 0.00 | 98 | 1009.8 |
| 20260509093126 | 56 | 245 | 1.0 | 2.0 | 0.00 | 0.19 | 0.00 | 98 | 1009.8 |
| 20260509092949 | 56 | 245 | 1.0 | 2.0 | 0.00 | 0.19 | 0.00 | 98 | 1009.8 |
| 20260509092238 | 56 | 129 | 0.0 | 0.0 | 0.00 | 0.19 | 0.00 | 98 | 1009.7 |
| 20260509091736 | 56 | 25 | 0.0 | 0.0 | 0.00 | 0.19 | 0.00 | 98 | 1009.8 |
| 20260509091632 | 56 | 327 | 0.0 | 2.0 | 0.00 | 0.19 | 0.00 | 98 | 1009.8 |
| 20260509091451 | 56 | 327 | 0.0 | 2.0 | 0.00 | 0.19 | 0.00 | 98 | 1009.8 |
| 20260509091117 | 56 | 13 | 0.0 | 2.0 | 0.00 | 0.19 | 0.00 | 98 | 1009.9 |
| 20260509090736 | 56 | 13 | 0.0 | 2.0 | 0.00 | 0.19 | 0.00 | 98 | 1009.9 |
| 20260509090238 | 56 | 11 | 0.0 | 2.0 | 0.00 | 0.19 | 0.00 | 98 | 1009.7 |
| 20260509090126 | 56 | 345 | 1.0 | 2.0 | 0.00 | 0.19 | 0.00 | 98 | 1009.8 |
| 20260509085737 | 56 | 345 | 1.0 | 2.0 | 0.00 | 0.19 | 0.00 | 98 | 1009.8 |
| 20260509085238 | 55 | 164 | 0.0 | 2.0 | 0.00 | 0.19 | 0.00 | 98 | 1009.8 |
| 20260509085135 | 56 | 138 | 1.0 | 2.0 | 0.00 | 0.19 | 0.00 | 98 | 1009.8 |
| 20260509084737 | 56 | 138 | 1.0 | 2.0 | 0.00 | 0.19 | 0.00 | 98 | 1009.8 |
| 20260509084237 | 56 | 62 | 0.0 | 1.0 | 0.00 | 0.19 | 0.00 | 98 | 1009.5 |
| 20260509083736 | 56 | 154 | 0.0 | 2.0 | 0.00 | 0.19 | 0.00 | 98 | 1009.6 |
| 20260509083307 | 56 | 224 | 0.0 | 2.0 | 0.00 | 0.19 | 0.00 | 98 | 1009.7 |
| 20260509083138 | 56 | 142 | 0.0 | 2.0 | 0.00 | 0.19 | 0.00 | 98 | 1009.6 |
| 20260509082738 | 56 | 142 | 0.0 | 2.0 | 0.00 | 0.19 | 0.00 | 98 | 1009.6 |
| 20260509082516 | 57 | 89 | 0.0 | 0.0 | 0.00 | 0.19 | 0.00 | 98 | 1009.8 |
| 20260509082355 | 56 | 117 | 0.0 | 2.0 | 0.00 | 0.19 | 0.00 | 98 | 1009.7 |
| 20260509081916 | 57 | 176 | 1.0 | 2.0 | 0.00 | 0.19 | 0.00 | 98 | 1009.9 |
| 20260509081448 | 57 | 89 | 0.0 | 0.0 | 0.00 | 0.19 | 0.00 | 98 | 1009.8 |
| 20260509081138 | 57 | 205 | 0.0 | 2.0 | 0.00 | 0.19 | 0.00 | 98 | 1009.9 |
| 20260509080947 | 57 | 205 | 0.0 | 2.0 | 0.00 | 0.19 | 0.00 | 98 | 1009.9 |
| 20260509080248 | 57 | 53 | 0.0 | 2.0 | 0.00 | 0.19 | 0.00 | 98 | 1009.9 |
| 20260509075737 | 57 | 135 | 0.0 | 2.0 | 0.00 | 0.19 | 0.00 | 98 | 1010.0 |
| 20260509075638 | 57 | 174 | 1.0 | 2.0 | 0.00 | 0.19 | 0.00 | 98 | 1009.9 |
| 20260509075241 | 57 | 174 | 1.0 | 2.0 | 0.00 | 0.19 | 0.00 | 98 | 1009.9 |
| 20260509074738 | 57 | 230 | 0.0 | 2.0 | 0.00 | 0.19 | 0.00 | 98 | 1010.1 |
| 20260509074236 | 58 | 229 | 1.0 | 2.0 | 0.00 | 0.19 | 0.00 | 98 | 1010.2 |
| 20260509074052 | 57 | 164 | 0.0 | 3.0 | 0.00 | 0.19 | 0.00 | 98 | 1010.1 |
| 20260509073917 | 57 | 172 | 0.0 | 0.0 | 0.00 | 0.19 | 0.00 | 98 | 1010.1 |
| 20260509073238 | 57 | 164 | 0.0 | 3.0 | 0.00 | 0.19 | 0.00 | 98 | 1010.1 |
| 20260509073127 | 58 | 171 | 0.0 | 3.0 | 0.00 | 0.19 | 0.00 | 98 | 1010.2 |
| 20260509072737 | 58 | 171 | 0.0 | 3.0 | 0.00 | 0.19 | 0.00 | 98 | 1010.2 |
| 20260509072525 | 58 | 343 | 0.0 | 1.0 | 0.00 | 0.19 | 0.00 | 98 | 1010.1 |
| 20260509072401 | 58 | 232 | 2.0 | 2.0 | 0.00 | 0.19 | 0.00 | 98 | 1010.3 |
| 20260509071239 | 58 | 351 | 0.0 | 1.0 | 0.00 | 0.19 | 0.00 | 98 | 1010.2 |
| 20260509071136 | 58 | 315 | 0.0 | 1.0 | 0.00 | 0.19 | 0.00 | 98 | 1010.3 |
| 20260509070949 | 58 | 315 | 0.0 | 1.0 | 0.00 | 0.19 | 0.00 | 98 | 1010.3 |
| 20260509070237 | 58 | 135 | 0.0 | 2.0 | 0.00 | 0.19 | 0.00 | 98 | 1010.4 |
| 20260509065738 | 58 | 138 | 1.0 | 3.0 | 0.00 | 0.19 | 0.00 | 98 | 1010.2 |
| 20260509065639 | 58 | 223 | 2.0 | 3.0 | 0.00 | 0.19 | 0.00 | 98 | 1010.2 |
| 20260509065236 | 58 | 223 | 2.0 | 3.0 | 0.00 | 0.19 | 0.00 | 98 | 1010.2 |
| 20260509064737 | 58 | 129 | 0.0 | 2.0 | 0.00 | 0.19 | 0.00 | 98 | 1010.4 |
| 20260509064645 | 58 | 158 | 1.0 | 2.0 | 0.00 | 0.19 | 0.00 | 98 | 1010.7 |
| 20260509064448 | 58 | 158 | 1.0 | 2.0 | 0.00 | 0.19 | 0.00 | 98 | 1010.7 |
| 20260509063737 | 58 | 198 | 1.0 | 2.0 | 0.00 | 0.19 | 0.00 | 98 | 1010.6 |
| 20260509063238 | 58 | 135 | 0.0 | 2.0 | 0.00 | 0.19 | 0.00 | 98 | 1010.6 |
| 20260509063226 | 58 | 155 | 1.0 | 2.0 | 0.00 | 0.19 | 0.00 | 98 | 1010.4 |
| 20260509062737 | 58 | 155 | 1.0 | 2.0 | 0.00 | 0.19 | 0.00 | 98 | 1010.4 |
| 20260509062238 | 58 | 143 | 2.0 | 2.0 | 0.00 | 0.19 | 0.00 | 98 | 1010.6 |
| 20260509062138 | 58 | 192 | 2.0 | 2.0 | 0.00 | 0.19 | 0.00 | 98 | 1010.8 |
| 20260509061950 | 58 | 192 | 2.0 | 2.0 | 0.00 | 0.19 | 0.00 | 98 | 1010.8 |
| 20260509061236 | 58 | 135 | 0.0 | 1.0 | 0.00 | 0.19 | 0.00 | 98 | 1010.6 |
| 20260509061053 | 59 | 49 | 1.0 | 2.0 | 0.00 | 0.19 | 0.00 | 98 | 1010.9 |
| 20260509060920 | 59 | 198 | 0.0 | 2.0 | 0.00 | 0.19 | 0.00 | 98 | 1010.8 |
| 20260509060450 | 59 | 49 | 1.0 | 2.0 | 0.00 | 0.19 | 0.00 | 98 | 1010.9 |
| 20260509060224 | 59 | 169 | 0.0 | 2.0 | 0.00 | 0.19 | 0.00 | 98 | 1010.9 |
| 20260509055950 | 59 | 169 | 0.0 | 2.0 | 0.00 | 0.19 | 0.00 | 98 | 1010.9 |
| 20260509055243 | 59 | 180 | 1.0 | 2.0 | 0.00 | 0.19 | 0.00 | 98 | 1010.8 |
| 20260509054738 | 59 | 174 | 0.0 | 2.0 | 0.00 | 0.19 | 0.00 | 97 | 1010.7 |
| 20260509054238 | 59 | 180 | 0.0 | 2.0 | 0.00 | 0.19 | 0.00 | 97 | 1010.7 |
| 20260509053736 | 60 | 182 | 2.0 | 3.0 | 0.00 | 0.19 | 0.00 | 98 | 1010.7 |
| 20260509053617 | 60 | 186 | 2.0 | 4.0 | 0.00 | 0.19 | 0.00 | 98 | 1010.3 |
| 20260509053440 | 60 | 160 | 2.0 | 4.0 | 0.00 | 0.19 | 0.00 | 97 | 1010.4 |
| 20260509052948 | 60 | 186 | 2.0 | 4.0 | 0.00 | 0.19 | 0.00 | 98 | 1010.3 |
| 20260509052237 | 60 | 84 | 3.0 | 6.0 | 0.00 | 0.19 | 0.00 | 98 | 1010.4 |
| 20260509052126 | 60 | 87 | 2.0 | 6.0 | 0.00 | 0.19 | 0.00 | 98 | 1010.3 |
| 20260509051737 | 60 | 87 | 2.0 | 6.0 | 0.00 | 0.19 | 0.00 | 98 | 1010.3 |
| 20260509051637 | 60 | 85 | 2.0 | 6.0 | 0.00 | 0.19 | 0.00 | 98 | 1010.4 |
| 20260509051449 | 60 | 85 | 2.0 | 6.0 | 0.00 | 0.19 | 0.00 | 98 | 1010.4 |
| 20260509051137 | 60 | 129 | 2.0 | 7.0 | 0.00 | 0.19 | 0.00 | 98 | 1010.3 |
| 20260509050949 | 60 | 129 | 2.0 | 7.0 | 0.00 | 0.19 | 0.00 | 98 | 1010.3 |
| 20260509050236 | 60 | 100 | 3.0 | 7.0 | 0.00 | 0.19 | 0.00 | 98 | 1010.4 |
| 20260509045734 | 60 | 140 | 2.0 | 5.0 | 0.00 | 0.19 | 0.19 | 98 | 1010.3 |
| 20260509045635 | 60 | 123 | 1.0 | 5.0 | 0.00 | 0.19 | 0.19 | 98 | 1010.1 |
| 20260509045447 | 60 | 123 | 1.0 | 5.0 | 0.00 | 0.19 | 0.19 | 98 | 1010.1 |
| 20260509044734 | 60 | 97 | 3.0 | 4.0 | 0.00 | 0.19 | 0.19 | 98 | 1010.1 |
| 20260509044235 | 60 | 44 | 3.0 | 5.0 | 0.00 | 0.19 | 0.19 | 98 | 1010.3 |
| 20260509043955 | 60 | 49 | 1.0 | 3.0 | 0.00 | 0.19 | 0.19 | 96 | 1010.1 |
| 20260509043946 | 60 | 124 | 0.0 | 4.0 | 0.00 | 0.19 | 0.19 | 97 | 1010.4 |
| 20260509043932 | 59 | 48 | 1.0 | 2.0 | 0.00 | 0.19 | 0.19 | 97 | 1010.3 |
| 20260509043921 | 59 | 112 | 1.0 | 2.0 | 0.00 | 0.19 | 0.19 | 97 | 1010.4 |
| 20260509043911 | 60 | 111 | 2.0 | 2.0 | 0.00 | 0.19 | 0.19 | 97 | 1010.3 |
| 20260509043859 | 60 | 9 | 1.0 | 4.0 | 0.00 | 0.19 | 0.19 | 97 | 1010.2 |
| 20260509043811 | 60 | 42 | 3.0 | 5.0 | 0.00 | 0.19 | 0.19 | 97 | 1010.3 |
| 20260509043601 | 59 | 48 | 1.0 | 2.0 | 0.00 | 0.19 | 0.19 | 97 | 1010.3 |
| 20260509042933 | 59 | 112 | 1.0 | 2.0 | 0.00 | 0.19 | 0.19 | 97 | 1010.4 |
| 20260509042441 | 60 | 111 | 2.0 | 2.0 | 0.00 | 0.19 | 0.19 | 97 | 1010.3 |
| 20260509042012 | 60 | 9 | 1.0 | 4.0 | 0.00 | 0.19 | 0.19 | 97 | 1010.2 |
| 20260509041546 | 60 | 124 | 0.0 | 4.0 | 0.00 | 0.19 | 0.19 | 97 | 1010.4 |
| 20260509040854 | 60 | 58 | 4.0 | 4.0 | 0.00 | 0.19 | 0.19 | 97 | 1010.6 |
| 20260509040545 | 60 | 49 | 1.0 | 3.0 | 0.00 | 0.19 | 0.19 | 96 | 1010.1 |
| 20260509040405 | 60 | 112 | 0.0 | 2.0 | 0.00 | 0.19 | 0.19 | 97 | 1010.6 |
| 20260509035931 | 60 | 178 | 1.0 | 2.0 | 0.00 | 0.19 | 0.19 | 96 | 1010.1 |
| 20260509034735 | 60 | 235 | 0.0 | 4.0 | 0.00 | 0.19 | 0.19 | 96 | 1010.0 |
| 20260509034233 | 60 | 186 | 2.0 | 5.0 | 0.00 | 0.19 | 0.19 | 96 | 1010.0 |
| 20260509034031 | 60 | 191 | 2.0 | 3.0 | 0.00 | 0.19 | 0.19 | 96 | 1009.9 |
| 20260509033901 | 60 | 194 | 2.0 | 5.0 | 0.00 | 0.19 | 0.19 | 96 | 1009.9 |
| 20260509032740 | 60 | 178 | 2.0 | 3.0 | 0.00 | 0.19 | 0.19 | 96 | 1009.7 |
| 20260509032231 | 61 | 44 | 0.0 | 6.0 | 0.00 | 0.19 | 0.19 | 96 | 1009.5 |
| 20260509032133 | 61 | 134 | 1.0 | 7.0 | 0.00 | 0.19 | 0.19 | 96 | 1009.7 |
| 20260509031731 | 61 | 134 | 1.0 | 7.0 | 0.00 | 0.19 | 0.19 | 96 | 1009.7 |
| 20260509031231 | 60 | 159 | 6.0 | 7.0 | 0.00 | 0.19 | 0.19 | 96 | 1009.5 |
| 20260509030732 | 60 | 143 | 2.0 | 2.0 | 0.00 | 0.19 | 0.19 | 95 | 1009.1 |
| 20260509030231 | 60 | 212 | 0.0 | 3.0 | 0.00 | 0.19 | 0.19 | 95 | 1009.1 |
| 20260509030134 | 60 | 221 | 2.0 | 3.0 | 0.00 | 0.19 | 0.19 | 94 | 1009.1 |
| 20260509025943 | 60 | 221 | 2.0 | 3.0 | 0.00 | 0.19 | 0.19 | 94 | 1009.1 |
| 20260509025720 | 60 | 137 | 2.0 | 2.0 | 0.00 | 0.19 | 0.19 | 94 | 1009.3 |
| 20260509025442 | 60 | 137 | 2.0 | 2.0 | 0.00 | 0.19 | 0.19 | 94 | 1009.3 |
| 20260509025145 | 61 | 124 | 1.0 | 2.0 | 0.00 | 0.19 | 0.19 | 94 | 1008.7 |
| 20260509024943 | 61 | 124 | 1.0 | 2.0 | 0.00 | 0.19 | 0.19 | 94 | 1008.7 |
| 20260509024234 | 61 | 177 | 0.0 | 3.0 | 0.00 | 0.19 | 0.19 | 93 | 1008.7 |
| 20260509023732 | 61 | 229 | 0.0 | 3.0 | 0.00 | 0.19 | 0.19 | 93 | 1008.6 |
| 20260509023231 | 62 | 187 | 2.0 | 4.0 | 0.00 | 0.19 | 0.19 | 93 | 1008.7 |
| 20260509022734 | 62 | 132 | 0.0 | 5.0 | 0.00 | 0.19 | 0.19 | 93 | 1008.6 |
| 20260509022721 | 62 | 147 | 2.0 | 5.0 | 0.00 | 0.19 | 0.19 | 93 | 1008.4 |
| 20260509022233 | 62 | 147 | 2.0 | 5.0 | 0.00 | 0.19 | 0.19 | 93 | 1008.4 |
| 20260509021732 | 62 | 70 | 2.0 | 5.0 | 0.00 | 0.19 | 0.19 | 92 | 1008.4 |
| 20260509021632 | 63 | 93 | 4.0 | 6.0 | 0.00 | 0.19 | 0.19 | 90 | 1008.4 |
| 20260509021442 | 63 | 93 | 4.0 | 6.0 | 0.00 | 0.19 | 0.19 | 90 | 1008.4 |
| 20260509020737 | 63 | 230 | 0.0 | 6.0 | 0.00 | 0.19 | 0.19 | 88 | 1008.2 |
| 20260509020234 | 63 | 277 | 0.0 | 9.0 | 0.00 | 0.19 | 0.19 | 89 | 1008.2 |
| 20260509020141 | 63 | 260 | 1.0 | 9.0 | 0.00 | 0.19 | 0.19 | 90 | 1007.9 |
| 20260509015946 | 63 | 260 | 1.0 | 9.0 | 0.00 | 0.19 | 0.19 | 90 | 1007.9 |
| 20260509015232 | 63 | 221 | 5.0 | 7.0 | 0.00 | 0.19 | 0.19 | 90 | 1007.9 |
| 20260509015121 | 64 | 177 | 3.0 | 5.0 | 0.00 | 0.19 | 0.19 | 89 | 1007.8 |
| 20260509014732 | 64 | 177 | 3.0 | 5.0 | 0.00 | 0.19 | 0.19 | 89 | 1007.8 |
| 20260509014651 | 64 | 269 | 0.0 | 6.0 | 0.00 | 0.19 | 0.19 | 88 | 1007.6 |
| 20260509014232 | 64 | 269 | 0.0 | 6.0 | 0.00 | 0.19 | 0.19 | 88 | 1007.6 |
| 20260509013733 | 64 | 246 | 4.0 | 6.0 | 0.00 | 0.19 | 0.19 | 88 | 1007.5 |
| 20260509013232 | 64 | 242 | 2.0 | 4.0 | 0.00 | 0.19 | 0.19 | 90 | 1007.3 |
| 20260509013127 | 64 | 205 | 2.0 | 3.0 | 0.00 | 0.19 | 0.19 | 91 | 1007.2 |
| 20260509012943 | 64 | 205 | 2.0 | 3.0 | 0.00 | 0.19 | 0.19 | 91 | 1007.2 |
| 20260509012719 | 64 | 302 | 0.0 | 2.0 | 0.00 | 0.19 | 0.19 | 90 | 1007.1 |
| 20260509012232 | 64 | 302 | 0.0 | 2.0 | 0.00 | 0.19 | 0.19 | 90 | 1007.1 |
| 20260509011732 | 65 | 347 | 1.0 | 3.0 | 0.00 | 0.19 | 0.19 | 88 | 1007.0 |
| 20260509011231 | 65 | 203 | 0.0 | 6.0 | 0.00 | 0.19 | 0.19 | 87 | 1007.1 |
| 20260509010732 | 65 | 266 | 1.0 | 6.0 | 0.00 | 0.19 | 0.19 | 87 | 1007.2 |
| 20260509010635 | 65 | 246 | 5.0 | 6.0 | 0.00 | 0.19 | 0.19 | 88 | 1007.2 |
| 20260509010232 | 65 | 246 | 5.0 | 6.0 | 0.00 | 0.19 | 0.19 | 88 | 1007.2 |
| 20260509005843 | 65 | 252 | 5.0 | 6.0 | 0.00 | 0.19 | 0.19 | 89 | 1007.2 |
| 20260509005221 | 65 | 255 | 5.0 | 6.0 | 0.00 | 0.19 | 0.19 | 89 | 1007.1 |
| 20260509005122 | 65 | 265 | 4.0 | 8.0 | 0.00 | 0.19 | 0.19 | 89 | 1007.1 |
| 20260509004722 | 65 | 265 | 4.0 | 8.0 | 0.00 | 0.19 | 0.19 | 89 | 1007.1 |
| 20260509004222 | 65 | 249 | 4.0 | 9.0 | 0.00 | 0.19 | 0.19 | 89 | 1006.6 |
| 20260509004128 | 65 | 239 | 5.0 | 9.0 | 0.00 | 0.19 | 0.19 | 89 | 1006.4 |
| 20260509003720 | 65 | 239 | 5.0 | 9.0 | 0.00 | 0.19 | 0.19 | 89 | 1006.4 |
| 20260509003634 | 65 | 232 | 3.0 | 7.0 | 0.00 | 0.19 | 0.19 | 89 | 1006.6 |
| 20260509003431 | 65 | 232 | 3.0 | 7.0 | 0.00 | 0.19 | 0.19 | 89 | 1006.6 |
| 20260509002720 | 65 | 248 | 5.0 | 6.0 | 0.00 | 0.19 | 0.19 | 90 | 1006.5 |
| 20260509002610 | 63 | 256 | 4.0 | 10.0 | 0.04 | 0.19 | 0.19 | 92 | 1005.9 |
| 20260509002418 | 64 | 254 | 3.0 | 9.0 | 0.00 | 0.19 | 0.19 | 91 | 1006.3 |
| 20260509001222 | 63 | 218 | 7.0 | 10.0 | 0.19 | 0.19 | 0.19 | 93 | 1006.3 |
| 20260509001122 | 63 | 199 | 4.0 | 9.0 | 0.19 | 0.19 | 0.19 | 94 | 1006.5 |
| 20260509000932 | 63 | 199 | 4.0 | 9.0 | 0.19 | 0.19 | 0.19 | 94 | 1006.5 |
| 20260509000621 | 63 | 252 | 5.0 | 10.0 | 0.19 | 0.19 | 0.19 | 94 | 1006.4 |
| 20260509000220 | 63 | 252 | 5.0 | 10.0 | 0.19 | 0.19 | 0.19 | 94 | 1006.4 |
| 20260509000121 | 63 | 203 | 4.0 | 10.0 | 0.19 | 0.00 | 0.19 | 94 | 1006.2 |
| 20260508235720 | 63 | 203 | 4.0 | 10.0 | 0.19 | 0.00 | 0.19 | 94 | 1006.2 |
| 20260508235225 | 63 | 194 | 3.0 | 7.0 | 0.19 | 0.00 | 0.19 | 94 | 1006.3 |
| 20260508234720 | 63 | 177 | 2.0 | 5.0 | 0.19 | 0.00 | 0.19 | 94 | 1006.5 |
| 20260508234631 | 63 | 218 | 4.0 | 5.0 | 0.19 | 0.00 | 0.19 | 93 | 1006.4 |
| 20260508234433 | 63 | 218 | 4.0 | 5.0 | 0.19 | 0.00 | 0.19 | 93 | 1006.4 |
| 20260508234034 | 64 | 214 | 3.0 | 5.0 | 0.19 | 0.00 | 0.19 | 92 | 1006.6 |
| 20260508233858 | 63 | 202 | 2.0 | 4.0 | 0.19 | 0.00 | 0.19 | 92 | 1006.7 |
| 20260508232720 | 64 | 217 | 1.0 | 11.0 | 0.19 | 0.00 | 0.19 | 90 | 1006.2 |
| 20260508232623 | 64 | 117 | 1.0 | 25.0 | 0.19 | 0.00 | 0.19 | 87 | 1006.6 |
| 20260508232433 | 64 | 117 | 1.0 | 25.0 | 0.19 | 0.00 | 0.19 | 87 | 1006.6 |
| 20260508231722 | 67 | 242 | 11.0 | 25.0 | 0.15 | 0.15 | 0.00 | 82 | 1007.6 |
| 20260508231653 | 76 | 329 | 20.0 | 23.0 | 0.00 | 0.00 | 0.00 | 61 | 1007.2 |
| 20260508231434 | 76 | 329 | 20.0 | 23.0 | 0.00 | 0.00 | 0.00 | 61 | 1007.2 |
| 20260508230721 | 78 | 164 | 2.0 | 6.0 | 0.00 | 0.00 | 0.00 | 57 | 1006.0 |
| 20260508230222 | 79 | 239 | 3.0 | 8.0 | 0.00 | 0.00 | 0.00 | 56 | 1006.3 |
| 20260508230131 | 79 | 211 | 5.0 | 8.0 | 0.00 | 0.00 | 0.00 | 55 | 1006.1 |
| 20260508225720 | 79 | 211 | 5.0 | 8.0 | 0.00 | 0.00 | 0.00 | 55 | 1006.1 |
| 20260508225646 | 79 | 210 | 2.0 | 8.0 | 0.00 | 0.00 | 0.00 | 54 | 1006.1 |
| 20260508225436 | 79 | 210 | 2.0 | 8.0 | 0.00 | 0.00 | 0.00 | 54 | 1006.1 |
| 20260508225213 | 79 | 220 | 4.0 | 9.0 | 0.00 | 0.00 | 0.00 | 54 | 1005.6 |
| 20260508224721 | 79 | 220 | 4.0 | 9.0 | 0.00 | 0.00 | 0.00 | 54 | 1005.6 |
| 20260508224634 | 80 | 194 | 4.0 | 9.0 | 0.00 | 0.00 | 0.00 | 54 | 1005.5 |
| 20260508224432 | 80 | 194 | 4.0 | 9.0 | 0.00 | 0.00 | 0.00 | 54 | 1005.5 |